Regional Weather Roundup
Issued by NWS State College, PA

Home | Current Version | Previous Version | Graphics & Text | Print | Product List | Glossary On
Versions: 1 2 3 4 5 6 7 8 9 10 11 12 13 14 15 16 17 18 19 20 21 22 23 24 25 26 27 28 29 30 31 32 33 34 35 36 37 38 39 40 41 42 43 44 45 46 47 48 49 50
000
ASUS41 KCTP 240910
RWRCTP

REGIONAL WEATHER ROUNDUP
NATIONAL WEATHER SERVICE STATE COLLEGE PA
500 AM EDT TUE MAY 24 2016

Note: "fair" indicates few or no clouds below 12,000 feet with no
significant weather and/or obstructions to visibility.

* = STATION THAT DOES NOT REPORT PRECIPITATION /E.G. RAIN...SNOW...ETC/
    THUNDER OR FOG.

PAZ002>004-007>009-013>016-020>023-029>032-241000-
WESTERN PENNSYLVANIA

CITY           SKY/WX    TMP DP  RH WIND       PRES   REMARKS
ERIE           CLEAR     50  44  80 S5        30.02R
MEADVILLE      CLEAR     52  42  69 CALM      30.03R
FRANKLIN*      CLEAR     46  43  87 CALM      30.05S
NEW CASTLE     FAIR      45  44  97 CALM      30.04R
BEAVER COUNTY  NOT AVBL
BUTLER*        CLEAR    N/A N/A N/A CALM      30.05R
PITTSBURGH INT CLEAR     53  47  79 CALM      30.03R
PITTSBURGH     CLEAR     52  49  89 S7        30.03R FOG
INDIANA*       MOCLDY    50  50 100 CALM      30.07R
LATROBE        PTCLDY    50  50 100 CALM      30.05R
WASHINGTON CO* CLEAR     46  45  93 CALM      30.05R
$$

PAZ004>006-010>012-017>019-024>028-033>037-041-042-045-046-049>053-241000-
CENTRAL PENNSYLVANIA

CITY           SKY/WX    TMP DP  RH WIND       PRES   REMARKS
BRADFORD       CLEAR     48  41  76 W3        30.03R
DUBOIS         CLEAR     50  42  74 W6        30.02R
CLEARFIELD     FOG       48  46  93 SW5       30.01R VSB 1/4
JOHNSTOWN      MOCLDY    52  44  74 W7        30.03R
ALTOONA        CLEAR     54  47  77 W9        30.00R
STATE COLLEGE  CLEAR     52  49  90 CALM      29.98R
WILLIAMSPORT   PTCLDY    53  48  83 W8        29.94R
SELINSGROVE    CLEAR     50  48  93 CALM      29.93S
FT INDIANTOWN  PTCLDY    61  48  62 VRB5      29.90S
CAPITAL CITY   PTCLDY    56  51  84 W7        29.92R
HARRISBURG     PTCLDY    57  52  83 NW9       29.91R
YORK           CLEAR     57  50  77 W6        29.91S
$$

PAZ038>040-043-044-047-048-054-055-060>062-067>071-241000-
EASTERN PENNSYLVANIA

CITY           SKY/WX    TMP DP  RH WIND       PRES   REMARKS
SCRANTON       PTCLDY    55  47  74 CALM      29.91S
MOUNT POCONO   CLOUDY    50  42  74 N8        29.91R
ALLENTOWN      CLOUDY    56  53  90 E3        29.89R
QUAKERTOWN*    CLOUDY    55  55 100 CALM      29.91R
READING        MOCLDY    55  53  93 CALM      29.88S FOG
LANCASTER      CLOUDY    55  52  89 W9        29.90R
COATESVILLE      N/A    N/A N/A N/A MISG        N/A
POTTSTOWN      CLOUDY    54  54 100 CALM      29.90R
BLUE BELL      CLOUDY    54  54 100 CALM      29.89R
DOYLESTOWN     PTCLDY    54  54 100 CALM      29.89R
WILLOW GROVE   NOT AVBL
NORTH PHILA    CLOUDY    58  55  90 CALM      29.91R
PHILADELPHIA   CLOUDY    58  54  86 E5        29.90R
$$



USA.gov is the U.S. government's official web portal to all federal, state and local government web resources and services.